SCP
0 0 0 0 0 0 0 0 0 0 0 0 0 0 0 0 0 0 0 0 0 0 0 0 0 0 0 0 0 0 0 0 0 0 0 0 0 0 0 0 0 0 0
0 0 0 0 0 0 0 0 0 0 0 0 0 0 0 0 0 0 0 0 0 0 0 0 0 0 0 0 0 0 0 0 0 0 0 0 0 0 0 0 0 0 0
0 0 0 0 0 0 0 0 0 0 0 0 0 0 0 0 0 0 0 0 0 0 0 0 0 0 0 0 0 0 0 0 0 0 0 0 0 0 0 0 0 0 0
0 0 0 0 0 0 0 0 0 0 0 0 0 0 0 0 0 0 0 0 0 0 0 0 0 0 0 0 0 0 0 0 0 0 0 0 0 0 0 0 0 0 0
0 0 0 0 0 0 0 0 0 0 0 0 0 0 0 0 0 0 0 0 0 0 0 0 0 0 0 0 0 0 0 0 0 0 0 0 0 0 0 0 0 0 0
0 0 0 0 0 0 0 0 0 0 0 1 1 1 0 0 0 0 0 0 0 0 0 0 0 0 0 0 0 0 0 0 0 0 0 0 0 0 0 0 0 0 0
0 0 0 0 0 0 0 0 0 1 1 1 1 1 1 1 1 1 0 0 0 0 0 0 0 0 0 0 0 0 0 0 0 0 0 0 0 0 0 0 0 0 0
0 0 0 0 0 0 0 0 0 1 1 1 1 1 1 1 1 1 0 0 0 0 0 0 0 0 0 0 0 0 0 0 0 0 0 0 0 0 0 0 0 0 0
0 0 0 0 0 0 0 0 1 1 1 1 1 1 0 0 1 1 0 0 0 0 0 0 0 0 0 0 0 0 0 0 0 0 0 0 0 0 0 0 0 0 0
0 0 0 0 0 0 0 0 1 1 1 1 0 0 0 1 1 1 0 0 0 0 0 0 0 0 0 0 0 0 0 0 0 0 0 0 0 0 0 0 0 0 0
0 0 0 0 0 0 0 0 1 1 1 0 0 0 0 1 1 1 0 0 0 0 0 0 0 0 0 0 0 0 0 0 0 0 0 0 0 0 0 0 0 0 0
0 0 0 0 0 0 0 0 0 0 0 0 0 1 1 1 1 1 0 0 0 0 0 0 0 0 0 0 0 0 0 0 0 0 0 0 0 0 0 1 1 1 1
0 0 0 1 1 1 1 1 0 0 0 0 1 1 1 1 1 1 0 0 0 0 0 0 1 1 0 1 1 1 1 1 1 1 1 1 1 1 1 1 1 1 1
1 1 1 1 1 1 1 1 1 0 0 0 1 1 1 1 1 1 1 1 1 1 1 1 1 1 1 1 1 1 1 1 1 1 1 1 1 1 1 1 1 1 1
1 1 1 1 1 1 1 1 1 1 0 0 1 1 1 1 1 1 1 1 1 1 1 1 1 1 1 1 1 1 1 1 1 1 1 1 1 1 1 1 1 1 1
1 1 1 1 1 1 1 1 1 1 1 1 1 1 1 1 1 1 1 1 1 1 1 1 1 1 1 1 1 1 1 1 1 1 1 1 1 1 0 0 0 0 0
1 1 1 1 1 1 1 1 1 1 1 1 1 1 1 1 1 1 1 1 1 1 1 1 1 1 1 0 0 0 1 1 1 1 1 1 1 1 1 0 0 0 0
1 1 1 1 1 1 1 1 1 1 1 1 1 1 1 1 1 1 1 1 1 1 1 1 1 1 1 0 0 0 1 1 1 1 1 1 1 1 1 1 0 0 0
1 1 1 1 1 1 1 1 1 1 1 1 1 1 1 1 1 1 1 1 1 1 1 1 1 1 1 0 0 0 1 1 1 1 1 1 1 1 0 1 1 0 0
1 1 1 1 1 1 1 1 1 1 1 1 1 1 1 1 1 1 1 1 1 1 1 1 1 1 1 0 0 0 1 1 1 1 1 1 1 0 0 0 0 0 0
1 1 1 1 1 1 1 1 1 1 1 1 1 1 1 1 1 1 1 1 1 1 1 1 1 1 1 0 0 0 0 1 1 1 1 1 0 0 0 0 0 0 0
1 1 1 1 1 1 1 1 1 1 1 1 1 1 1 1 1 1 1 1 1 1 1 1 1 1 1 0 0 0 0 0 1 1 1 1 0 0 0 0 0 0 0
1 1 1 1 1 1 1 1 1 1 1 1 1 1 1 1 1 1 1 1 1 1 1 1 1 1 1 0 0 0 0 0 0 1 0 0 0 0 0 0 0 0 0
1 1 1 1 1 1 1 1 1 1 1 1 1 1 1 1 1 1 0 0 0 0 0 0 0 0 0 0 0 0 0 0 0 0 0 0 0 0 0 0 0 0 0
1 1 1 1 1 1 1 1 1 1 1 1 1 1 0 0 0 0 0 0 0 0 0 0 0 0 0 0 0 0 0 0 0 0 0 0 0 0 0 0 0 0 0
1 1 1 1 1 1 1 1 1 1 1 1 1 0 0 0 0 0 0 0 0 0 0 0 0 0 0 0 0 0 0 0 0 0 0 0 0 0 0 0 0 0 0
Wind_Speed
7 7 7 6 7 7 6 6 5 5 4 2 2 2 2 1 1 1 1 1 0 0 1 1 2 1 1 1 2 2 2 2 1 2 1 2 3 2 2 2 1 2 2
8 7 7 7 7 7 7 6 6 5 4 2 1 1 0 0 1 0 1 1 1 1 1 1 2 1 1 2 2 2 2 1 1 2 2 2 2 2 2 2 2 2 2
8 9 8 8 8 8 8 6 6 5 5 3 3 2 2 2 2 1 1 1 1 1 1 0 1 1 2 2 2 3 3 2 2 2 3 3 1 0 2 1 1 2 2
8 8 9 9 9 8 8 7 7 6 5 5 4 4 2 2 1 1 1 1 1 1 1 1 1 2 2 1 3 2 2 3 2 2 2 3 3 3 1 2 2 2 2
8 8 8 8 8 8 7 7 7 6 6 5 5 4 3 2 2 1 1 1 2 2 1 1 1 2 2 2 2 2 3 3 3 2 2 2 3 4 4 2 2 2 2
8 8 8 8 7 7 7 7 7 7 6 6 6 5 4 3 2 2 2 3 2 2 2 2 2 2 2 2 3 3 4 3 3 3 3 3 3 3 3 3 3 2 2
8 8 8 9 8 8 8 7 8 7 7 7 6 5 5 4 4 4 3 3 2 1 1 1 2 2 2 3 3 3 3 3 4 4 3 3 3 3 4 4 3 3 2
8 8 8 8 8 9 9 8 8 8 7 6 5 5 5 4 3 3 3 2 2 2 1 2 2 2 3 3 2 3 3 3 4 5 3 3 3 3 4 4 4 4 3
7 7 8 8 8 8 8 8 8 7 7 7 6 5 5 4 3 3 3 3 2 2 2 2 3 3 3 3 3 2 2 3 4 4 4 4 3 3 4 4 4 5 4
6 7 7 7 7 8 8 8 8 8 7 7 6 5 6 5 4 4 3 2 2 2 2 3 3 3 3 3 4 3 2 3 3 3 3 4 4 3 3 4 4 4 5
5 6 6 7 7 7 7 7 8 8 7 7 6 5 5 5 5 4 4 3 3 3 3 3 3 3 3 3 3 4 3 4 4 4 4 4 4 4 4 3 3 4 4
4 6 6 7 7 7 7 7 7 7 7 6 6 5 5 5 5 5 4 4 4 4 3 3 4 4 4 3 4 4 4 4 4 4 4 4 3 4 4 4 4 3 3
3 5 6 6 6 5 5 6 6 6 6 5 5 5 5 5 5 5 4 4 4 4 3 3 3 4 4 4 4 4 4 4 4 4 4 4 4 5 4 4 3 3 3
3 4 5 5 5 4 4 4 4 4 4 5 5 5 5 5 5 5 4 4 4 4 4 4 4 4 4 4 4 4 4 4 4 3 3 3 4 4 4 3 3 3 3
3 4 5 5 5 4 4 4 4 4 4 4 5 4 4 4 3 4 4 4 4 4 4 4 4 4 4 3 3 4 4 3 3 3 3 2 2 3 3 3 2 2 3
2 3 4 5 5 5 4 4 4 4 5 5 5 4 4 4 4 4 4 4 4 3 3 4 4 4 3 1 2 4 3 3 3 3 3 3 2 1 1 2 2 2 3
2 3 4 4 4 5 4 4 4 4 5 5 4 4 4 4 4 4 4 4 4 4 4 4 4 4 2 1 2 3 4 3 3 3 3 3 1 2 2 2 3 1 2
2 2 3 3 4 4 4 4 4 5 5 5 4 4 4 4 4 4 4 4 3 3 3 3 3 3 2 2 3 3 4 4 3 3 3 2 2 2 1 2 2 2 2
1 2 3 3 3 3 4 4 4 5 5 5 5 4 4 4 4 5 5 4 4 4 4 3 3 3 2 2 3 4 3 3 3 3 2 2 2 1 2 3 3 2 2
1 1 2 3 3 2 3 4 4 5 5 4 4 4 4 4 5 5 5 4 4 4 3 3 3 3 3 1 2 4 3 2 2 2 2 2 1 0 2 3 3 3 3
1 1 2 3 2 2 3 4 4 5 4 4 4 4 4 5 4 4 4 4 4 3 3 3 3 3 3 2 3 3 3 3 2 2 2 1 3 2 2 3 3 4 5
1 2 2 2 2 3 3 4 4 4 3 4 4 4 4 4 3 4 4 4 4 4 4 4 4 3 3 2 3 4 4 4 2 2 1 0 2 3 4 3 3 4 5
2 2 2 2 2 3 3 3 3 3 4 4 4 3 3 3 3 4 4 4 4 4 4 3 3 3 2 2 4 5 5 5 3 2 1 2 3 4 4 4 4 5 4
2 2 2 2 2 2 2 2 2 3 4 4 3 3 3 3 3 3 3 3 3 3 3 3 3 3 3 3 2 3 3 4 4 2 2 4 5 4 2 3 3 3 2
2 2 2 2 2 1 1 2 2 3 3 3 3 3 3 3 2 2 1 2 1 2 3 3 3 3 3 1 1 2 2 2 1 2 2 1 1 2 2 2 2 2 2
2 2 2 2 2 1 1 1 2 2 3 3 3 3 3 2 3 2 1 4 3 4 3 2 3 1 1 1 1 1 1 2 2 3 3 2 2 3 2 2 2 2 2
Wind_Direction
173 171 179 180 178 176 176 178 178 167 179 183 192 165 157 155 137 136 109 134 84 129 227 212 155 204 170 182 187 188 184 211 220 246 236 202 210 215 221 234 237 210 222
178 177 180 180 182 180 182 182 186 183 192 182 198 182 145 182 121 89 109 195 180 223 201 191 216 191 179 193 194 208 244 233 234 279 273 230 189 192 216 213 209 240 233
187 182 184 185 186 185 186 186 186 185 194 190 191 182 175 206 172 164 160 185 206 213 310 202 262 229 232 197 211 212 228 249 239 270 295 300 321 272 182 219 210 217 241
190 184 183 186 189 188 184 184 184 186 187 189 198 203 203 198 178 206 161 173 202 217 220 235 263 259 253 215 230 206 231 240 248 229 266 293 319 295 270 214 207 220 236
188 183 185 184 187 186 184 182 182 186 186 192 196 210 216 207 198 193 160 225 197 216 227 233 245 247 253 244 257 225 243 238 258 268 259 247 248 261 275 282 283 260 247
184 180 179 177 183 181 182 181 180 186 187 192 198 208 216 226 238 234 215 223 203 201 203 225 241 250 260 245 245 238 226 243 260 273 268 264 260 270 265 269 266 269 263
180 178 179 180 183 184 183 181 179 185 188 192 199 206 213 216 222 241 233 250 252 224 206 245 243 258 253 251 252 244 257 240 243 253 258 265 266 274 271 270 273 272 258
181 180 181 182 184 184 184 184 181 185 189 192 194 201 208 219 216 221 249 243 264 270 270 245 246 256 255 252 243 250 241 236 245 251 262 264 264 266 265 268 272 265 251
177 178 178 182 182 182 183 184 181 185 190 192 190 195 204 222 227 220 234 246 256 259 231 241 248 253 253 255 251 256 255 241 247 247 240 257 265 262 267 266 262 268 271
174 173 175 179 177 177 176 180 182 185 189 193 197 192 199 206 213 227 234 252 262 278 269 250 245 247 245 241 245 245 236 245 251 263 275 276 275 275 269 265 268 267 270
175 172 175 174 173 171 171 177 181 186 192 196 197 203 199 198 198 205 217 225 237 237 240 245 243 242 245 243 242 251 244 244 250 256 255 259 282 284 278 264 259 259 258
177 172 170 170 173 175 173 175 182 188 191 192 193 198 197 200 205 205 209 215 224 231 229 236 238 242 243 243 243 248 248 247 249 254 258 261 261 263 273 270 262 264 264
174 165 164 168 174 177 177 178 184 189 187 185 193 196 198 201 209 215 215 214 214 223 234 235 236 240 245 242 242 247 251 254 256 258 257 260 266 267 268 268 267 264 252
168 171 164 167 170 171 175 183 187 190 187 187 194 198 205 207 210 213 216 216 213 213 221 231 239 245 244 243 241 239 245 252 254 257 259 262 267 270 266 259 266 271 267
157 169 169 165 171 173 179 185 188 190 193 192 198 199 200 199 204 208 212 214 216 219 221 232 238 245 243 244 244 238 234 241 249 250 254 258 291 311 300 292 278 270 265
163 170 174 173 175 180 189 184 188 191 191 198 206 203 201 200 203 206 209 208 211 220 223 227 236 242 250 274 253 250 242 237 239 242 249 243 226 239 264 315 328 310 271
196 185 183 182 181 184 187 189 187 191 192 199 206 204 205 204 206 209 204 210 213 214 219 224 228 235 242 224 230 240 240 235 236 235 238 250 239 216 229 211 208 233 283
241 206 198 190 188 184 178 185 186 190 195 201 204 203 203 201 198 201 204 208 212 215 215 218 222 234 224 188 224 236 228 237 238 239 235 244 262 277 275 246 229 230 233
282 222 201 191 181 179 176 183 188 191 198 202 205 204 203 203 204 206 206 207 209 216 220 216 220 234 238 189 216 238 225 222 232 236 232 231 228 304 276 236 232 233 225
319 234 201 190 182 184 187 196 201 201 204 204 208 208 206 208 213 212 211 208 207 213 223 224 228 235 245 186 200 243 241 228 230 224 214 182 216 256 277 247 246 248 252
280 227 207 207 199 197 199 207 211 217 215 210 212 213 211 212 210 209 209 210 213 213 225 234 237 239 238 200 191 225 247 251 238 232 229 193 146 184 245 268 269 273 271
262 232 218 217 209 204 204 210 216 222 216 210 213 215 217 224 200 194 204 211 217 218 217 222 236 234 222 213 198 201 228 261 242 245 247 201 161 208 231 250 268 268 268
270 241 234 217 209 213 217 217 210 206 206 205 208 212 210 210 205 202 206 208 212 231 232 230 236 242 234 196 191 195 205 219 229 257 239 243 219 223 222 217 230 238 247
280 252 245 246 232 220 224 227 204 200 202 201 199 202 202 201 200 214 223 230 233 239 246 251 250 247 238 237 223 215 200 194 206 225 194 204 214 225 231 219 219 235 250
279 262 252 256 249 243 233 226 193 194 198 192 198 209 210 199 195 209 296 272 304 326 279 271 266 261 253 290 348 270 253 266 276 264 241 238 243 237 225 230 239 242 237
274 265 264 272 271 256 246 232 191 192 199 194 200 214 217 202 205 189 150 53 44 53 37 340 308 330 26 68 281 272 260 250 233 244 243 241 243 249 249 253 252 250 253